KUIPER-00093

导读

KUIPER-00093是美国亚马逊柯伊伯(Kuiper)卫星互联网星座的一员,于2025年7月16日,在美国佛罗里达州空军东部试验场发射升空。该卫星运行在近地轨道,平均轨道高度约636公里,倾角51.9度,轨道周期约97.3分钟,目前处于正常运行状态。它配备相控阵天线,将为全球提供高速卫星互联网接入服务,是亚马逊部署近万颗卫星星座组网计划的重要组成部分。

Basic Information
目录编号:
64838
目录名称:
KUIPER-00093
国际标识:
2025-151Y
轨道中心:
EARTH
卫星名称:
KUIPER-00093
卫星全名:
KUIPER-00093
卫星状态:
在轨 (已飞行334 天)
发射日期:
2025-07-16 UTC
国别 :
美国 (US)
星等 :
--
Orbit Information
数据来源 国际轨道数据 AOE轨道数据
星历时间 2026-06-14T16:52:13+0800
22小时前
查看轨道信息
2026-06-15T05:00:00+0800
10小时前
查看轨道信息
半长轴 7007.676km 7007.695km
偏心率 0.0000464 0.0000594
轨道倾角 51.900° 51.897°
近地点辐角 90.115° 60.499°
升交点赤经 225.561° 223.327°
平近点角 269.987° 113.919°
近地点 629.213km 629.141km
远地点 629.865km 629.975km
周期 97.302分钟 97.302分钟
每日圈数 14.799322 14.79926
Detailed Information
使用方式:
暂无
2D Orbit Map
3D Orbit Map
Orbit Altitude Analysis Chart
Orbit Inclination Analysis Chart
Orbit Comprehensive Analysis Chart
View Comprehensive Chart